• In Hungary
  • List of Countries
  • For 7 days
  • Water Temperature
  • Satellite Maps
  • Weather Map
  • News
  • Weather Widgets
  • user-avatar
    Login

    Hourly Weather Lyndy

    Today, 23 October, Tuesday

    Time Temperature Precipitation Wind Pressure Humidity
    00:00 +3°C° 0.1 mm 4 mps 743 mmHg 88%
    01:00 +3°C° 0.1 mm 4 mps 742 mmHg 89%
    02:00 +3°C° 0 mm 4 mps 742 mmHg 89%
    03:00 +3°C° 0.6 mm 4 mps 741 mmHg 91%
    04:00 +4°C° 0.6 mm 4 mps 741 mmHg 92%
    05:00 +4°C° 0.6 mm 4 mps 740 mmHg 93%
    06:00 +4°C° 0 mm 3 mps 740 mmHg 94%
    07:00 +4°C° 0 mm 3 mps 740 mmHg 94%
    08:00 +4°C° 0 mm 3 mps 740 mmHg 94%
    09:00 +5°C° 0 mm 3 mps 739 mmHg 89%
    10:00 +5°C° 0 mm 3 mps 739 mmHg 83%
    11:00 +7°C° 0 mm 3 mps 738 mmHg 78%
    12:00 +7°C° 0 mm 3 mps 738 mmHg 74%
    13:00 +6°C° 0 mm 4 mps 737 mmHg 70%
    14:00 +6°C° 0 mm 4 mps 736 mmHg 69%
    15:00 +6°C° 0 mm 4 mps 735 mmHg 72%
    16:00 +5°C° 0 mm 4 mps 734 mmHg 74%
    17:00 +4°C° 0 mm 3 mps 733 mmHg 77%
    18:00 +4°C° 0.2 mm 4 mps 732 mmHg 77%
    19:00 +3°C° 0.2 mm 5 mps 731 mmHg 78%
    20:00 +3°C° 0.2 mm 6 mps 730 mmHg 79%
    21:00 +3°C° 0.5 mm 6 mps 729 mmHg 80%
    22:00 +3°C° 0.5 mm 6 mps 728 mmHg 81%
    23:00 +2°C° 0.5 mm 6 mps 727 mmHg 82%

    Tomorrow, 24 October, Wednesday

    Time Temperature Precipitation Wind Pressure Humidity
    00:00 +2°C° 0.5 mm 6 mps 726 mmHg 83%
    01:00 +2°C° 0.5 mm 6 mps 725 mmHg 84%
    02:00 +3°C° 0.5 mm 6 mps 724 mmHg 85%
    03:00 +3°C° 0.5 mm 6 mps 723 mmHg 86%
    04:00 +3°C° 0.5 mm 5 mps 722 mmHg 87%
    05:00 +3°C° 0.5 mm 5 mps 721 mmHg 88%
    06:00 +4°C° 0.3 mm 4 mps 721 mmHg 89%
    07:00 +4°C° 0.3 mm 3 mps 720 mmHg 90%
    08:00 +4°C° 0.3 mm 3 mps 720 mmHg 91%
    09:00 +5°C° 0.1 mm 2 mps 720 mmHg 89%
    10:00 +6°C° 0.1 mm 2 mps 720 mmHg 86%
    11:00 +8°C° 0.1 mm 1 mps 720 mmHg 84%
    12:00 +8°C° 0.2 mm 1 mps 720 mmHg 82%
    13:00 +8°C° 0.2 mm 1 mps 720 mmHg 79%
    14:00 +8°C° 0.2 mm 1 mps 720 mmHg 77%
    15:00 +8°C° 0.1 mm 1 mps 721 mmHg 81%
    16:00 +7°C° 0.1 mm 1 mps 721 mmHg 84%
    17:00 +6°C° 0.1 mm 1 mps 721 mmHg 87%
    18:00 +6°C° 0.1 mm 1 mps 721 mmHg 89%
    19:00 +5°C° 0.1 mm 2 mps 722 mmHg 90%
    20:00 +4°C° 0.1 mm 2 mps 722 mmHg 91%
    21:00 +4°C° 0 mm 2 mps 722 mmHg 92%
    22:00 +3°C° 0 mm 3 mps 723 mmHg 94%
    23:00 +2°C° 0 mm 3 mps 723 mmHg 95%

    Day after tomorrow, 25 October, Thursday

    Time Temperature Precipitation Wind Pressure Humidity
    00:00 +2°C° 0 mm 3 mps 723 mmHg 94%
    01:00 +3°C° 0 mm 4 mps 724 mmHg 93%
    02:00 +2°C° 0 mm 5 mps 724 mmHg 92%
    03:00 +2°C° 0 mm 5 mps 725 mmHg 89%
    04:00 +2°C° 0 mm 5 mps 725 mmHg 87%
    05:00 +2°C° 0 mm 6 mps 725 mmHg 84%
    06:00 +2°C° 0 mm 6 mps 726 mmHg 82%
    07:00 +2°C° 0 mm 6 mps 726 mmHg 81%
    08:00 +1°C° 0 mm 6 mps 727 mmHg 79%
    09:00 +2°C° 0 mm 6 mps 727 mmHg 77%
    10:00 +2°C° 0 mm 6 mps 728 mmHg 75%
    11:00 +2°C° 0 mm 6 mps 728 mmHg 73%
    12:00 +2°C° 0 mm 6 mps 728 mmHg 72%
    13:00 +2°C° 0 mm 6 mps 728 mmHg 72%
    14:00 +2°C° 0 mm 6 mps 729 mmHg 72%
    15:00 +2°C° 0 mm 5 mps 729 mmHg 74%
    16:00 +2°C° 0 mm 5 mps 729 mmHg 75%
    17:00 +1°C° 0 mm 4 mps 729 mmHg 77%
    18:00 +1°C° 0 mm 4 mps 729 mmHg 78%
    19:00 +2°C° 0 mm 3 mps 729 mmHg 78%
    20:00 +2°C° 0 mm 3 mps 729 mmHg 79%
    21:00 +1°C° 0 mm 3 mps 729 mmHg 82%
    22:00 +2°C° 0 mm 2 mps 729 mmHg 84%
    23:00 +1°C° 0 mm 2 mps 730 mmHg 87%

    26 October, Friday

    Time Temperature Precipitation Wind Pressure Humidity
    00:00 +1°C° 0 mm 2 mps 730 mmHg 88%
    01:00 +1°C° 0 mm 2 mps 730 mmHg 88%
    02:00 -1°C° 0 mm 2 mps 730 mmHg 89%
    03:00 0°C° 0 mm 3 mps 731 mmHg 89%
    04:00 0°C° 0 mm 3 mps 731 mmHg 90%
    05:00 0°C° 0 mm 3 mps 731 mmHg 90%
    06:00 0°C° 0.1 mm 3 mps 731 mmHg 89%
    07:00 0°C° 0.1 mm 4 mps 731 mmHg 89%
    08:00 0°C° 0.1 mm 4 mps 731 mmHg 89%
    09:00 +1°C° 0.1 mm 5 mps 732 mmHg 85%
    10:00 +2°C° 0.1 mm 5 mps 732 mmHg 81%
    11:00 +3°C° 0.1 mm 6 mps 732 mmHg 77%
    12:00 +3°C° 0.1 mm 6 mps 732 mmHg 77%
    13:00 +3°C° 0.1 mm 5 mps 733 mmHg 76%
    14:00 +3°C° 0.1 mm 5 mps 733 mmHg 76%
    15:00 +2°C° 0 mm 5 mps 733 mmHg 78%
    16:00 +1°C° 0 mm 4 mps 734 mmHg 80%
    17:00 +2°C° 0 mm 3 mps 734 mmHg 82%
    18:00 +2°C° 0 mm 3 mps 735 mmHg 83%
    19:00 +1°C° 0 mm 3 mps 735 mmHg 84%
    20:00 0°C° 0 mm 4 mps 735 mmHg 86%
    21:00 0°C° 0 mm 4 mps 735 mmHg 88%
    22:00 +1°C° 0 mm 3 mps 735 mmHg 90%
    23:00 0°C° 0 mm 3 mps 735 mmHg 93%

    27 October, Saturday

    Time Temperature Precipitation Wind Pressure Humidity
    00:00 0°C° 0.3 mm 4 mps 735 mmHg 92%
    01:00 +1°C° 0.3 mm 5 mps 735 mmHg 91%
    02:00 +2°C° 0.3 mm 5 mps 735 mmHg 90%
    03:00 +2°C° 0.4 mm 6 mps 734 mmHg 89%
    04:00 +2°C° 0.4 mm 7 mps 733 mmHg 88%
    05:00 +2°C° 0.4 mm 8 mps 732 mmHg 87%
    06:00 +2°C° 0.8 mm 8 mps 731 mmHg 88%
    07:00 +2°C° 0.8 mm 8 mps 730 mmHg 88%
    08:00 +2°C° 0.8 mm 8 mps 730 mmHg 89%
    09:00 +3°C° 0.7 mm 9 mps 729 mmHg 87%
    10:00 +5°C° 0.7 mm 9 mps 729 mmHg 86%
    11:00 +6°C° 0.7 mm 9 mps 728 mmHg 84%
    12:00 +6°C° 0.4 mm 10 mps 728 mmHg 78%
    13:00 +6°C° 0.4 mm 10 mps 728 mmHg 72%
    14:00 +6°C° 0.4 mm 10 mps 728 mmHg 67%
    15:00 +5°C° 0.1 mm 10 mps 729 mmHg 68%
    16:00 +3°C° 0.1 mm 10 mps 730 mmHg 70%
    17:00 +2°C° 0.1 mm 10 mps 732 mmHg 71%
    18:00 +1°C° 0 mm 9 mps 733 mmHg 73%
    19:00 +1°C° 0 mm 9 mps 734 mmHg 74%
    20:00 0°C° 0 mm 8 mps 735 mmHg 75%
    21:00 -1°C° 0 mm 7 mps 737 mmHg 78%
    22:00 -1°C° 0 mm 6 mps 738 mmHg 80%
    23:00 -1°C° 0 mm 5 mps 739 mmHg 82%

    28 October, Sunday

    Time Temperature Precipitation Wind Pressure Humidity
    00:00 -1°C° 0 mm 4 mps 740 mmHg 85%
    01:00 -1°C° 0 mm 4 mps 740 mmHg 87%
    02:00 -1°C° 0 mm 3 mps 741 mmHg 90%
    03:00 -1°C° 0 mm 3 mps 742 mmHg 91%
    04:00 -1°C° 0 mm 3 mps 742 mmHg 92%
    05:00 -2°C° 0 mm 3 mps 743 mmHg 93%
    06:00 -1°C° 0 mm 3 mps 744 mmHg 91%
    07:00 -1°C° 0 mm 3 mps 745 mmHg 89%
    08:00 -1°C° 0 mm 3 mps 745 mmHg 87%
    09:00 0°C° 0 mm 3 mps 746 mmHg 80%
    10:00 +2°C° 0 mm 3 mps 747 mmHg 72%
    11:00 +3°C° 0 mm 3 mps 747 mmHg 65%
    12:00 +3°C° 0 mm 3 mps 747 mmHg 64%
    13:00 +4°C° 0 mm 2 mps 748 mmHg 62%
    14:00 +5°C° 0 mm 2 mps 748 mmHg 61%
    15:00 +5°C° 0 mm 1 mps 748 mmHg 66%
    16:00 +3°C° 0 mm 1 mps 749 mmHg 71%
    17:00 +1°C° 0 mm 0 mps 749 mmHg 76%
    18:00 +1°C° 0 mm 0 mps 749 mmHg 76%
    19:00 +2°C° 0 mm 0 mps 750 mmHg 76%
    20:00 +2°C° 0 mm 0 mps 750 mmHg 76%
    21:00 +3°C° 0 mm 1 mps 750 mmHg 76%
    22:00 +3°C° 0 mm 1 mps 751 mmHg 77%
    23:00 +3°C° 0 mm 1 mps 751 mmHg 77%

    29 October, Monday

    Time Temperature Precipitation Wind Pressure Humidity
    00:00 +2°C° 0 mm 1 mps 751 mmHg 77%
    01:00 +2°C° 0 mm 1 mps 751 mmHg 78%
    02:00 +1°C° 0 mm 2 mps 751 mmHg 79%
    03:00 +1°C° 0.1 mm 2 mps 751 mmHg 79%
    04:00 +1°C° 0.1 mm 2 mps 751 mmHg 79%
    05:00 +1°C° 0.1 mm 2 mps 751 mmHg 79%
    06:00 0°C° 0.2 mm 3 mps 751 mmHg 80%
    07:00 0°C° 0.2 mm 3 mps 750 mmHg 80%
    08:00 -1°C° 0.2 mm 4 mps 750 mmHg 80%
    09:00 -1°C° 0.9 mm 4 mps 750 mmHg 83%
    10:00 -1°C° 0.9 mm 5 mps 750 mmHg 86%
    11:00 -1°C° 0.9 mm 5 mps 750 mmHg 89%
    12:00 -1°C° 1.1 mm 5 mps 750 mmHg 90%
    13:00 -1°C° 1.1 mm 5 mps 749 mmHg 91%
    14:00 -2°C° 1.1 mm 6 mps 749 mmHg 92%
    15:00 -2°C° 1 mm 6 mps 748 mmHg 92%
    16:00 -2°C° 1 mm 6 mps 748 mmHg 92%
    17:00 -2°C° 1 mm 6 mps 748 mmHg 92%
    18:00 -2°C° 1.2 mm 7 mps 747 mmHg 92%
    19:00 -2°C° 1.2 mm 7 mps 747 mmHg 92%
    20:00 -3°C° 1.2 mm 7 mps 747 mmHg 92%
    21:00 -3°C° 1.4 mm 7 mps 747 mmHg 92%
    22:00 -3°C° 1.4 mm 7 mps 747 mmHg 93%
    23:00 -3°C° 1.4 mm 7 mps 747 mmHg 93%
    Show more